Time,TemperatureF,DewpointF,PressureIn,WindDirection,WindDirectionDegrees,WindSpeedMPH,WindSpeedGustMPH,Humidity,HourlyPrecipIn,Conditions,Clouds,dailyrainin,SoftwareType,DateUTC
2013-03-09 00:14:00,61.1,42.0,29.61,ESE,115,5.0,10.0,49,0.00,,,0.00,weatherlink.com 1.10,2013-03-09 06:14:00,
2013-03-09 00:29:00,60.5,42.0,29.60,ESE,123,5.0,13.0,51,0.00,,,0.00,weatherlink.com 1.10,2013-03-09 06:29:00,
2013-03-09 00:44:00,61.1,41.0,29.60,SE,128,0.0,10.0,48,0.00,,,0.00,weatherlink.com 1.10,2013-03-09 06:44:00,
2013-03-09 00:59:00,60.3,41.0,29.60,SE,128,3.0,9.0,49,0.00,,,0.00,weatherlink.com 1.10,2013-03-09 06:59:00,
2013-03-09 01:14:00,60.5,39.0,29.60,SE,128,5.0,9.0,45,0.00,,,0.00,weatherlink.com 1.10,2013-03-09 07:14:00,
2013-03-09 01:29:00,60.4,39.0,29.60,SSW,194,3.0,8.0,46,0.00,,,0.00,weatherlink.com 1.10,2013-03-09 07:29:00,
2013-03-09 01:44:00,60.3,39.0,29.60,SSE,159,5.0,11.0,45,0.00,,,0.00,weatherlink.com 1.10,2013-03-09 07:44:00,
2013-03-09 01:59:00,60.7,38.0,29.60,SSE,167,3.0,9.0,44,0.00,,,0.00,weatherlink.com 1.10,2013-03-09 07:59:00,
2013-03-09 02:14:00,60.5,36.0,29.60,SSE,153,3.0,10.0,41,0.00,,,0.00,weatherlink.com 1.10,2013-03-09 08:14:00,
2013-03-09 02:29:00,60.7,34.0,29.60,ESE,123,5.0,13.0,37,0.00,,,0.00,weatherlink.com 1.10,2013-03-09 08:29:00,
2013-03-09 02:44:00,61.2,32.0,29.60,WSW,251,3.0,16.0,34,0.00,,,0.00,weatherlink.com 1.10,2013-03-09 08:44:00,
2013-03-09 02:59:00,61.1,32.0,29.60,ESE,108,4.0,15.0,34,0.00,,,0.00,weatherlink.com 1.10,2013-03-09 08:59:00,
2013-03-09 03:14:00,61.2,32.0,29.59,ESE,104,4.0,21.0,33,0.00,,,0.00,weatherlink.com 1.10,2013-03-09 09:14:00,
2013-03-09 03:29:00,61.4,31.0,29.59,North,5,6.0,12.0,32,0.00,,,0.00,weatherlink.com 1.10,2013-03-09 09:29:00,
2013-03-09 04:00:00,60.5,31.0,29.59,NNW,330,3.0,13.0,33,0.00,,,0.00,weatherlink.com 1.10,2013-03-09 10:00:00,
2013-03-09 04:15:00,60.2,31.0,29.58,NW,306,0.0,13.0,33,0.00,,,0.00,weatherlink.com 1.10,2013-03-09 10:15:00,
2013-03-09 04:30:00,59.8,32.0,29.58,NW,318,4.0,18.0,35,0.00,,,0.00,weatherlink.com 1.10,2013-03-09 10:30:00,
2013-03-09 04:45:00,59.5,32.0,29.58,WSW,242,2.0,13.0,36,0.00,,,0.00,weatherlink.com 1.10,2013-03-09 10:45:00,
2013-03-09 05:00:00,59.2,32.0,29.59,SSE,158,0.0,8.0,36,0.00,,,0.00,weatherlink.com 1.10,2013-03-09 11:00:00,
2013-03-09 05:15:00,59.2,33.0,29.59,WSW,257,3.0,13.0,37,0.00,,,0.00,weatherlink.com 1.10,2013-03-09 11:15:00,
2013-03-09 05:30:00,58.7,33.0,29.60,SE,146,1.0,9.0,38,0.00,,,0.00,weatherlink.com 1.10,2013-03-09 11:30:00,
2013-03-09 05:45:00,58.8,32.0,29.60,WSW,246,1.0,11.0,37,0.00,,,0.00,weatherlink.com 1.10,2013-03-09 11:45:00,
2013-03-09 06:00:00,58.1,32.0,29.61,SE,143,6.0,12.0,38,0.00,,,0.00,weatherlink.com 1.10,2013-03-09 12:00:00,
2013-03-09 06:15:00,57.8,32.0,29.62,SE,128,1.0,9.0,38,0.00,,,0.00,weatherlink.com 1.10,2013-03-09 12:15:00,
2013-03-09 06:30:00,58.5,31.0,29.62,WSW,253,0.0,15.0,35,0.00,,,0.00,weatherlink.com 1.10,2013-03-09 12:30:00,
2013-03-09 06:45:00,57.5,31.0,29.62,SSW,207,1.0,8.0,37,0.00,,,0.00,weatherlink.com 1.10,2013-03-09 12:45:00,
2013-03-09 07:00:00,56.4,32.0,29.62,SSW,202,4.0,6.0,39,0.00,,,0.00,weatherlink.com 1.10,2013-03-09 13:00:00,
2013-03-09 07:15:00,56.1,31.0,29.62,South,186,3.0,8.0,39,0.00,,,0.00,weatherlink.com 1.10,2013-03-09 13:15:00,
2013-03-09 07:30:00,56.0,31.0,29.63,SSE,150,3.0,10.0,39,0.00,,,0.00,weatherlink.com 1.10,2013-03-09 13:30:00,
2013-03-09 07:45:00,55.9,32.0,29.63,SSE,150,2.0,8.0,40,0.00,,,0.00,weatherlink.com 1.10,2013-03-09 13:45:00,
2013-03-09 08:00:00,56.3,31.0,29.64,SSE,150,2.0,7.0,39,0.00,,,0.00,weatherlink.com 1.10,2013-03-09 14:00:00,
2013-03-09 08:15:00,57.7,32.0,29.64,SSE,150,0.0,4.0,38,0.00,,,0.00,weatherlink.com 1.10,2013-03-09 14:15:00,
2013-03-09 08:30:00,59.4,32.0,29.64,SSE,150,3.0,7.0,35,0.00,,,0.00,weatherlink.com 1.10,2013-03-09 14:30:00,
2013-03-09 08:45:00,60.6,32.0,29.65,WSW,246,5.0,9.0,34,0.00,,,0.00,weatherlink.com 1.10,2013-03-09 14:45:00,
2013-03-09 09:00:00,61.6,31.0,29.65,WSW,257,1.0,10.0,32,0.00,,,0.00,weatherlink.com 1.10,2013-03-09 15:00:00,
2013-03-09 09:15:00,62.6,31.0,29.64,SW,234,1.0,10.0,31,0.00,,,0.00,weatherlink.com 1.10,2013-03-09 15:15:00,
2013-03-09 09:30:00,63.3,31.0,29.64,WSW,257,3.0,12.0,30,0.00,,,0.00,weatherlink.com 1.10,2013-03-09 15:30:00,
2013-03-09 09:46:00,63.9,32.0,29.64,WSW,256,2.0,13.0,30,0.00,,,0.00,weatherlink.com 1.10,2013-03-09 15:46:00,
2013-03-09 10:01:00,63.9,31.0,29.64,West,263,6.0,15.0,29,0.00,,,0.00,weatherlink.com 1.10,2013-03-09 16:01:00,
2013-03-09 10:16:00,63.5,31.0,29.64,West,279,6.0,14.0,29,0.00,,,0.00,weatherlink.com 1.10,2013-03-09 16:16:00,
2013-03-09 10:31:00,63.7,32.0,29.64,WNW,282,6.0,14.0,30,0.00,,,0.00,weatherlink.com 1.10,2013-03-09 16:31:00,
2013-03-09 10:46:00,64.5,31.0,29.64,West,267,7.0,14.0,29,0.00,,,0.00,weatherlink.com 1.10,2013-03-09 16:46:00,
2013-03-09 11:01:00,64.7,32.0,29.64,West,269,12.0,12.0,30,0.00,,,0.00,weatherlink.com 1.10,2013-03-09 17:01:00,
2013-03-09 11:16:00,64.8,32.0,29.64,West,263,8.0,10.0,29,0.00,,,0.00,weatherlink.com 1.10,2013-03-09 17:16:00,
2013-03-09 11:31:00,65.6,32.0,29.64,West,259,16.0,16.0,29,0.00,,,0.00,weatherlink.com 1.10,2013-03-09 17:31:00,
2013-03-09 11:46:00,65.5,32.0,29.64,West,260,7.0,16.0,29,0.00,,,0.00,weatherlink.com 1.10,2013-03-09 17:46:00,
2013-03-09 12:01:00,65.6,31.0,29.63,West,264,1.0,12.0,28,0.00,,,0.00,weatherlink.com 1.10,2013-03-09 18:01:00,
2013-03-09 12:16:00,67.7,32.0,29.62,West,263,9.0,9.0,27,0.00,,,0.00,weatherlink.com 1.10,2013-03-09 18:16:00,
2013-03-09 12:31:00,67.5,31.0,29.62,WSW,257,8.0,20.0,26,0.00,,,0.00,weatherlink.com 1.10,2013-03-09 18:31:00,
2013-03-09 12:46:00,67.0,32.0,29.62,West,261,10.0,19.0,27,0.00,,,0.00,weatherlink.com 1.10,2013-03-09 18:46:00,
2013-03-09 13:01:00,67.6,32.0,29.61,West,274,6.0,15.0,27,0.00,,,0.00,weatherlink.com 1.10,2013-03-09 19:01:00,
2013-03-09 13:16:00,68.0,32.0,29.61,West,265,9.0,13.0,26,0.00,,,0.00,weatherlink.com 1.10,2013-03-09 19:16:00,
2013-03-09 13:31:00,68.7,31.0,29.59,West,278,5.0,12.0,25,0.00,,,0.00,weatherlink.com 1.10,2013-03-09 19:31:00,
2013-03-09 13:46:00,68.5,32.0,29.59,West,271,6.0,16.0,26,0.00,,,0.00,weatherlink.com 1.10,2013-03-09 19:46:00,
2013-03-09 14:01:00,69.1,31.0,29.58,West,271,9.0,13.0,24,0.00,,,0.00,weatherlink.com 1.10,2013-03-09 20:01:00,
2013-03-09 14:16:00,69.0,31.0,29.58,WNW,285,5.0,18.0,24,0.00,,,0.00,weatherlink.com 1.10,2013-03-09 20:16:00,
2013-03-09 14:31:00,69.2,30.0,29.56,West,280,11.0,14.0,23,0.00,,,0.00,weatherlink.com 1.10,2013-03-09 20:31:00,
2013-03-09 14:46:00,70.5,29.0,29.56,West,277,1.0,13.0,21,0.00,,,0.00,weatherlink.com 1.10,2013-03-09 20:46:00,
2013-03-09 15:01:00,69.4,29.0,29.56,West,273,6.0,15.0,22,0.00,,,0.00,weatherlink.com 1.10,2013-03-09 21:01:00,
2013-03-09 15:16:00,69.3,28.0,29.56,West,259,4.0,14.0,21,0.00,,,0.00,weatherlink.com 1.10,2013-03-09 21:16:00,
2013-03-09 15:31:00,69.7,28.0,29.56,West,261,4.0,14.0,21,0.00,,,0.00,weatherlink.com 1.10,2013-03-09 21:31:00,
2013-03-09 15:46:00,68.8,28.0,29.55,West,276,9.0,12.0,22,0.00,,,0.00,weatherlink.com 1.10,2013-03-09 21:46:00,
2013-03-09 16:01:00,69.7,28.0,29.54,West,277,11.0,15.0,21,0.00,,,0.00,weatherlink.com 1.10,2013-03-09 22:01:00,
2013-03-09 16:16:00,70.3,27.0,29.54,WNW,289,8.0,13.0,20,0.00,,,0.00,weatherlink.com 1.10,2013-03-09 22:16:00,
2013-03-09 16:32:00,69.6,27.0,29.53,WNW,285,3.0,10.0,20,0.00,,,0.00,weatherlink.com 1.10,2013-03-09 22:32:00,
2013-03-09 16:47:00,70.2,26.0,29.52,WNW,284,5.0,7.0,19,0.00,,,0.00,weatherlink.com 1.10,2013-03-09 22:47:00,
2013-03-09 17:02:00,70.1,26.0,29.52,WNW,284,7.0,8.0,19,0.00,,,0.00,weatherlink.com 1.10,2013-03-09 23:02:00,
2013-03-09 17:17:00,70.5,25.0,29.52,WNW,290,3.0,11.0,18,0.00,,,0.00,weatherlink.com 1.10,2013-03-09 23:17:00,
2013-03-09 17:32:00,69.2,25.0,29.52,WNW,286,6.0,16.0,19,0.00,,,0.00,weatherlink.com 1.10,2013-03-09 23:32:00,
2013-03-09 17:47:00,68.3,26.0,29.51,West,274,11.0,14.0,20,0.00,,,0.00,weatherlink.com 1.10,2013-03-09 23:47:00,
2013-03-09 18:02:00,67.2,26.0,29.52,WNW,286,10.0,16.0,21,0.00,,,0.00,weatherlink.com 1.10,2013-03-10 00:02:00,
2013-03-09 18:17:00,65.9,26.0,29.53,West,281,11.0,14.0,22,0.00,,,0.00,weatherlink.com 1.10,2013-03-10 00:17:00,
2013-03-09 18:32:00,64.3,27.0,29.53,WNW,283,10.0,14.0,24,0.00,,,0.00,weatherlink.com 1.10,2013-03-10 00:32:00,
2013-03-09 18:47:00,62.6,26.0,29.54,West,281,11.0,13.0,25,0.00,,,0.00,weatherlink.com 1.10,2013-03-10 00:47:00,
2013-03-09 19:17:00,59.9,25.0,29.55,WNW,284,6.0,13.0,26,0.00,,,0.00,weatherlink.com 1.10,2013-03-10 01:17:00,
2013-03-09 19:32:00,58.9,24.0,29.56,WNW,283,5.0,8.0,26,0.00,,,0.00,weatherlink.com 1.10,2013-03-10 01:32:00,
2013-03-09 19:47:00,58.2,23.0,29.57,WNW,283,3.0,5.0,26,0.00,,,0.00,weatherlink.com 1.10,2013-03-10 01:47:00,
2013-03-09 20:02:00,57.8,22.0,29.58,WNW,283,3.0,6.0,25,0.00,,,0.00,weatherlink.com 1.10,2013-03-10 02:02:00,
2013-03-09 20:17:00,57.6,20.0,29.59,WNW,283,4.0,8.0,23,0.00,,,0.00,weatherlink.com 1.10,2013-03-10 02:17:00,
2013-03-09 20:32:00,56.7,19.0,29.60,WNW,283,1.0,7.0,23,0.00,,,0.00,weatherlink.com 1.10,2013-03-10 02:32:00,
2013-03-09 20:47:00,55.8,15.0,29.62,NW,309,11.0,15.0,20,0.00,,,0.00,weatherlink.com 1.10,2013-03-10 02:47:00,
2013-03-09 21:02:00,54.4,15.0,29.63,NW,321,8.0,13.0,21,0.00,,,0.00,weatherlink.com 1.10,2013-03-10 03:02:00,
2013-03-09 21:17:00,53.5,14.0,29.65,WNW,289,11.0,15.0,21,0.00,,,0.00,weatherlink.com 1.10,2013-03-10 03:17:00,
2013-03-09 21:32:00,52.6,16.0,29.67,WNW,298,9.0,13.0,23,0.00,,,0.00,weatherlink.com 1.10,2013-03-10 03:32:00,
2013-03-09 21:47:00,51.3,16.0,29.68,WNW,301,6.0,9.0,25,0.00,,,0.00,weatherlink.com 1.10,2013-03-10 03:47:00,
2013-03-09 22:04:00,50.1,16.0,29.70,NW,315,0.0,5.0,26,0.00,,,0.00,weatherlink.com 1.10,2013-03-10 04:04:00,
2013-03-09 22:17:00,50.1,16.0,29.72,NW,313,3.0,9.0,26,0.00,,,0.00,weatherlink.com 1.10,2013-03-10 04:17:00,
2013-03-09 22:32:00,49.4,17.0,29.73,NW,313,2.0,6.0,27,0.00,,,0.00,weatherlink.com 1.10,2013-03-10 04:32:00,
2013-03-09 22:47:00,48.9,16.0,29.73,WNW,286,3.0,6.0,27,0.00,,,0.00,weatherlink.com 1.10,2013-03-10 04:47:00,
2013-03-09 23:02:00,48.5,17.0,29.74,WNW,286,0.0,4.0,28,0.00,,,0.00,weatherlink.com 1.10,2013-03-10 05:02:00,
2013-03-09 23:17:00,48.4,16.0,29.75,WNW,286,3.0,4.0,28,0.00,,,0.00,weatherlink.com 1.10,2013-03-10 05:17:00,
2013-03-09 23:32:00,48.2,17.0,29.76,WNW,286,0.0,3.0,29,0.00,,,0.00,weatherlink.com 1.10,2013-03-10 05:32:00,
2013-03-09 23:47:00,48.0,17.0,29.76,WNW,286,0.0,7.0,29,0.00,,,0.00,weatherlink.com 1.10,2013-03-10 05:47:00,